{"data":{"norad_id":60730,"intl_designator":"2024-152L","name":"STARLINK-11255 [DTC]","alt_names":[],"object_type":"PAYLOAD","status":"ACTIVE","operator":null,"country":"US","launch_date":"2024-08-28","launch_site_code":"AFETR","launch_vehicle":null,"mission":null,"orbit_class":"UNKNOWN","rcs_meters":null,"size_class":null,"mass_kg":null,"dimensions":null,"purposes":["comms"],"wikipedia_slug":null,"has_3d_model":false,"image_url":null,"decayed_at":null,"tle_current":{"epoch":"2026-05-25T03:01:13.605024Z","epoch_age_seconds":60650,"freshness":"FRESH","line1":"1 60730U 24152L   26145.12585191  .00000845  00000+0  11828-4 0  9990","line2":"2 60730  53.1589  99.1988 0000881  88.5199 271.5920 15.69714050100858","mean_motion":15.6971405,"eccentricity":8.81e-5,"inclination_deg":53.1589,"raan_deg":99.1988,"arg_perigee_deg":88.5199,"mean_anomaly_deg":271.592,"bstar":1.1828e-5,"rev_number":10085,"period_min":91.736453527953,"perigee_km":359.12155611958,"apogee_km":360.30876567033,"semimajor_km":6737.852160895,"source":"CELESTRAK","updated_at":"2026-05-25T13:38:19.309601Z"}}}